Location: Toronto
(43.6672°N, 79.4170°W)
Time: 14:49:29
(UTC-05:00)

Daily predictions for brighter satellites

Satellite Brightness Start Highest point End
(mag) Time Altitude Azimuth Time Altitude Azimuth Time Altitude Azimuth
USA 215 3.7 17:37:38 10° E 17:43:45 44° NNE 17:49:52 10° NW
Cosmos 2237 Rocket 2.6 17:38:28 10° S 17:43:45 44° ESE 17:49:05 10° NE
Cosmos 44 Rocket 3.4 17:38:49 10° SSW 17:43:56 74° ESE 17:48:59 10° NE
Cosmos 2084 3.2 17:40:17 10° SSW 17:44:11 73° SE 17:47:58 10° NE
NOSS 0 Rocket 4.1 17:39:39 10° S 17:45:41 56° ESE 17:51:45 10° NE
BREEZE-M DEB (TANK) 3.9 17:38:08 10° NW 17:47:59 61° SW 17:51:21 10° SE
Cosmos 389 Rocket 4.4 17:44:55 10° NNW 17:48:14 35° W 17:51:29 10° SSW
COSMOS 2428 3.3 17:42:50 10° SW 17:48:28 61° WNW 17:54:09 10° NNE
Cosmos 1300 3.0 17:45:44 10° N 17:49:25 44° ENE 17:53:06 10° SSE
Cosmos 1634 Rocket 4.0 17:44:44 10° N 17:50:56 68° E 17:57:02 10° SSE
SL-16 R/B 3.4 17:46:44 10° SSE 17:50:56 22° E 17:55:07 10° NE
Cosmos 1340 Rocket 4.0 17:48:14 10° SE 17:51:18 22° E 17:54:22 10° NE
SL-14 R/B 3.8 17:48:50 10° SSE 17:52:29 38° E 17:56:13 10° NNE
Abrixas 3.4 17:50:27 10° SSW 17:53:08 34° SSE 17:55:48 10° E
Cosmos 1461 4.5 17:51:30 10° SSE 17:54:20 18° ESE 17:57:06 10° ENE
Cosmos 2058 3.6 17:51:34 10° SSE 17:55:12 31° E 17:58:51 10° NNE
Cosmos 1484 Rocket 3.0 17:52:19 10° SSE 17:56:08 50° ENE 18:00:01 10° N
CZ-4 R/B 4.4 17:55:54 10° SSE 18:00:03 82° ENE 18:04:12 10° N
Cosmos 2297 4.2 17:55:16 10° NNW 18:00:36 38° ENE 18:05:55 10° SE
Lacrosse 5 3.7 18:02:59 10° WNW 18:06:41 20° NNW 18:10:23 10° NE
Cosmos 1844 Rocket 4.1 18:02:20 10° NW 18:07:40 43° WSW 18:12:56 10° S
CZ-4C R/B 4.5 18:10:44 10° NNW 18:13:48 13° N 18:17:01 10° NE
Meteor 1-28 Rocket 3.8 18:11:05 10° NNE 18:14:32 35° E 18:17:58 10° SSE
OTV 4 3.4 18:13:46 10° SW 18:15:14 13° SSW 18:16:41 10° S
Cosmos 1125 Rocket 3.8 18:10:15 10° NNW 18:15:28 74° WSW 18:20:38 10° SSE
Transit 2A Rocket 4.4 18:11:28 10° NNW 18:15:50 79° ENE 18:20:08 10° SE
Meteor 2-10 4.0 18:11:34 10° N 18:16:39 64° ENE 18:21:49 10° SSE
Cosmos 1356 Rocket 4.5 18:13:45 10° SE 18:16:54 23° E 18:19:10 15° NE
CENTAUR R/B 3.6 18:12:21 10° WSW 18:18:16 43° NW 18:24:57 10° NNE
CZ-2C R/B 3.9 18:13:45 10° SSW 18:18:25 40° W 18:22:59 10° NNW
Cosmos 1707 Rocket 4.2 18:14:56 10° N 18:18:52 33° ENE 18:22:48 10° SE
COSMO-SKYMED 1 2.6 18:14:46 10° NNE 18:19:05 63° E 18:23:23 10° S
YAOGAN 1 3.8 18:15:42 10° S 18:19:52 46° W 18:24:04 10° NNW
Thor Agena Rocket 4.0 18:18:30 10° N 18:23:42 64° WNW 18:28:48 10° SSW
Resurs 01 Rocket 2.8 18:26:17 16° E 18:28:18 22° ENE 18:31:43 10° NNE
FENGYUN 3A 4.5 18:24:30 10° ESE 18:28:59 28° ENE 18:33:29 10° N
Lacrosse 5 rocket 1.5 18:25:18 10° NW 18:29:04 69° SW 18:33:02 10° SE
Meteor 1-11 4.2 18:24:56 10° S 18:30:37 80° E 18:36:24 10° NNE
Cosmos 1666 Rocket 4.2 18:26:52 10° SSE 18:30:46 33° E 18:34:14 13° NNE
Cosmos 1980 3.9 18:26:15 10° SSW 18:31:55 73° WNW 18:37:37 10° NNE
Timation 1 Rocket 4.3 18:25:57 10° NNW 18:32:00 74° ENE 18:38:00 10° SSE
METEOR-M 4.2 18:28:52 10° SSE 18:34:04 55° ENE 18:39:17 10° N
Cosmos 1184 Rocket 4.3 18:31:24 10° SE 18:33:17 21° ESE 18:33:17 21° ESE
Cosmos 1538 Rocket 4.4 18:31:53 10° S 18:36:51 42° ESE 18:40:44 16° NE
Cosmos 2151 3.4 18:33:01 10° SSW 18:37:10 62° W 18:41:21 10° N
Cosmos 2279 Rocket 4.0 18:33:24 10° N 18:39:39 87° W 18:45:54 10° S
Iridium 4 Rocket 4.0 18:36:27 10° SE 18:39:48 25° E 18:39:48 25° E
ATLAS 5 CENTAUR R/B 4.1 18:37:57 10° N 18:40:39 13° NNE 18:41:50 13° NNE
Cosmos 44 4.0 18:39:16 10° SW 18:44:24 56° NW 18:48:48 13° NNE
ALOS 2.7 18:43:03 10° SE 18:47:18 36° ENE 18:51:35 10° N
NOAA 12 4.0 18:44:57 10° SSE 18:50:10 82° ENE 18:55:28 10° NNW
Cosmos 2333 Rocket 3.2 18:45:54 10° SW 18:51:16 44° WNW 18:56:42 10° NNE
Cosmos 2219 Rocket 3.6 18:47:31 10° WSW 18:52:38 35° NW 18:57:46 10° N
Cosmos 1626 2.0 18:51:06 10° S 18:54:49 69° E 18:56:51 25° NNE
SJ-6B 2.8 18:55:05 10° SSE 18:59:09 82° ENE 19:03:19 10° N
Cosmos 1943 Rocket 4.3 18:57:39 10° NNE 18:57:49 10° NNE 18:57:49 10° NNE
Cosmos 2242 Rocket 3.7 18:55:43 10° N 18:59:59 47° ENE 19:04:16 10° SSE
Nadezhda 4 Rocket 3.9 18:54:37 10° S 19:00:49 68° E 19:07:06 10° NNE
Aureole 2 Rocket 3.8 18:57:18 10° SW 19:00:56 45° WNW 19:04:26 13° N
Cosmos 2278 Rocket 3.9 18:56:53 10° NW 19:02:01 35° WSW 19:07:07 10° S
Cosmos 1703 3.4 18:59:19 10° SSW 19:03:11 70° W 19:06:55 11° N
Cosmos 1455 2.0 19:01:51 10° N 19:05:39 82° E 19:09:28 10° S
Cosmos 1805 Rocket 4.0 19:04:49 10° SSW 19:09:13 64° W 19:13:41 10° N
Lacrosse 4 Rocket 2.0 19:09:12 10° NNW 19:12:10 39° NNE 19:12:10 39° NNE
SL-19 R/B 4.2 19:07:52 10° SSE 19:13:45 79° ENE 19:19:22 10° NNW
Cosmos 773 Rocket 3.9 19:12:59 10° S 19:18:05 66° ESE 19:19:20 49° NE
FREGAT/IRIS 3.6 19:16:23 10° S 19:19:21 47° W 19:22:19 10° NNW
Cosmos 1092 Rocket 3.9 19:14:53 10° S 19:21:09 71° E 19:27:30 10° NNE
USA 215 3.4 19:21:36 19° SE 19:26:30 74° SW 19:33:05 10° NW
Sich 1 3.4 19:22:13 10° SSW 19:26:37 64° W 19:29:41 19° N
Cosmos 2237 Rocket 3.8 19:23:01 10° WSW 19:27:57 31° NW 19:32:57 10° N
ATLAS 3B R/B 4.4 19:24:58 10° NNW 19:29:05 16° NNE 19:29:53 16° NNE
Cosmos 2369 Rocket 3.4 19:26:24 10° N 19:29:27 26° NNE 19:29:27 26° NNE
Cosmos 1461 3.6 19:29:08 10° SW 19:33:10 47° NW 19:33:36 45° NNW
Cosmos 1633 Rocket 3.5 19:29:44 10° SSW 19:34:06 60° W 19:36:08 30° N
SL-16 R/B 2.7 19:29:01 10° SW 19:34:34 57° WNW 19:37:58 24° N
Cosmos 2195 Rocket 4.3 19:40:19 10° S 19:46:13 72° ESE 19:46:13 72° ESE
Lacrosse 5 3.8 19:47:35 10° NW 19:50:06 18° N 19:50:06 18° N
CZ-3A R/B 3.6 19:54:54 10° WNW 19:59:20 50° SW 20:01:30 33° S
Aureole 1 Rocket 4.3 19:56:32 10° SW 20:01:58 62° WNW 20:05:30 29° N
Spot 2 Rocket 4.4 19:58:45 10° S 20:03:35 47° W 20:08:27 10° NNW
Resurs 01 Rocket 2.9 20:03:50 36° WSW 20:04:33 39° W 20:08:44 10° NNW
CZ-4C R/B 4.1 19:59:12 10° NNW 20:03:00 24° N 20:03:00 24° N
USA 229 DEB 3.7 20:04:51 10° SW 20:11:43 76° NW 20:12:14 72° NNW
USA 229 3.7 20:04:57 10° SW 20:11:48 76° NW 20:12:17 73° NNW
BREEZE-M DEB (TANK) 4.4 20:01:25 10° WNW 20:13:47 55° NNW 20:13:47 55° NNW
ALOS 4.4 20:21:01 10° SSW 20:24:49 25° W 20:28:39 10° NW
ATLAS 5 CENTAUR R/B 4.2 20:21:32 10° NNW 20:23:24 20° NNW 20:23:24 20° NNW
